Home > Weather > Uluru > Past weeks

Flag for Australia Past Weather in Uluru, Northern Territory, Australia — Yesterday and Last 2 Weeks

Now
61 °F

Clear.


Feels Like: 61 °F
Forecast: 44 / 67 °F
Wind: 6 mph from Southeast

Location: Ayers Rock

Current Time: Jul 25, 2016 at 7:39:31 PM

Latest Report: Jul 25, 2016 at 6:30 PM


Visibility: N/A

Pressure: 30.15 "Hg (27.25 "Hg at 857m altitude)

Humidity: 34%

Dew Point: 32 °F

Location of UluruLocation

Past Weather in Uluru — Graph

°F

Uluru Temperature Yesterday

Maximum temperature yesterday: 64 °F (at 3:30 PM)
Minimum temperature yesterday: 52 °F (at 7:30 AM)
Average temperature yesterday: 57 °F

High & Low Weather Summary for the Past Weeks

 TemperatureHumidityPressure
High82 °F (Jul 21, 2:30 PM)100% (Jul 11, 5:30 AM)30.45 "Hg (Jul 11, 5:30 AM)
Low30 °F (Jul 17, 7:30 AM)13% (Jul 17, 4:30 PM)29.95 "Hg (Jul 10, 5:30 PM)
Average54 °F58%30.17 "Hg
* Reported Jul 10 5:30 PM — Jul 25 5:30 PM, Uluru, Weather by CustomWeather, © 2016

Note: Actual official high and low records may vary slightly from our data, if they occured in-between our weather recording intervals... More about our weather records

Advertising

Uluru Weather History for the Previous 24 Hours

Scroll right to see more
 ConditionsComfort  
Time TempWeatherWind HumidityBarometerVisibility
5:30 PM
Mon, Jul 25
64 °FSunny.9 mph30%30.12 "HgN/A
4:30 PM66 °FSunny.10 mph28%30.12 "HgN/A
3:30 PM64 °FSunny.12 mph30%30.12 "HgN/A
2:30 PM63 °FSunny.12 mph32%30.15 "HgN/A
1:30 PM63 °FSunny.13 mph34%30.18 "HgN/A
12:30 PM61 °FSunny.15 mph36%30.21 "HgN/A
11:30 AM57 °FSunny.13 mph41%30.27 "HgN/A
10:30 AM57 °FSunny.15 mph44%30.27 "HgN/A
9:30 AM52 °FSunny.13 mph50%30.27 "HgN/A
8:30 AM45 °FSunny.8 mph66%30.24 "HgN/A
7:30 AM41 °FSunny.7 mph70%30.24 "HgN/A
6:30 AM43 °FClear.7 mph66%30.21 "HgN/A
5:30 AM46 °FClear.8 mph62%30.18 "HgN/A
4:30 AM46 °FClear.8 mph57%30.18 "HgN/A
3:30 AM50 °FClear.7 mph54%30.18 "HgN/A
2:30 AM50 °FClear.6 mph54%30.18 "HgN/A
1:30 AM52 °FClear.7 mph50%30.18 "HgN/A
12:30 AM54 °FClear.6 mph47%30.18 "HgN/A
11:30 PM
Sun, Jul 24
54 °FClear.7 mph44%30.21 "HgN/A
10:30 PM54 °FClear.6 mph44%30.21 "HgN/A
9:30 PM55 °FClear.6 mph41%30.21 "HgN/A
8:30 PM57 °FClear.8 mph36%30.21 "HgN/A
7:30 PM59 °FClear.7 mph36%30.18 "HgN/A
Weather by CustomWeather, © 2016

See weather overviewHow to use our weather pages